Location: Lassen National Park
(40.5158°N, 121.4639°W)
Time: 06:03:32
(UTC-07:00)

N. Korean satellite - Visible Passes

Search period start: 19 October 2019 00:00
Search period end: 29 October 2019 00:00
Orbit: 455 x 508 km, 97.2° (Epoch: 18 October)

Date Brightness Start Highest point End Pass type
(mag) Time Alt. Az. Time Alt. Az. Time Alt. Az.
19 Oct 10.0 06:08:22 10° NE 06:10:46 17° E 06:13:12 10° SE visible
21 Oct 7.3 06:50:07 10° NNE 06:53:43 60° E 06:57:20 10° S visible
21 Oct 9.6 18:59:16 10° SSW 19:01:56 21° W 19:04:38 10° NW visible
22 Oct 9.1 06:25:11 10° NE 06:28:22 27° E 06:31:32 10° SSE visible
23 Oct 10.2 06:00:58 10° ENE 06:02:54 14° E 06:04:51 10° SE visible
24 Oct 10.2 19:17:53 10° WSW 19:19:30 13° W 19:21:07 10° WNW visible
25 Oct 7.9 06:42:19 10° NNE 06:45:53 47° E 06:49:27 10° S visible
25 Oct 9.1 18:51:05 10° SSW 18:54:01 26° W 18:57:00 10° NW visible
26 Oct 9.4 06:17:31 10° NE 06:20:28 22° E 06:23:27 10° SSE visible
27 Oct 10.4 05:53:50 10° ENE 05:55:00 11° E 05:56:09 10° ESE visible
28 Oct 6.8 06:59:38 10° NNE 07:03:20 83° ESE 07:07:03 10° S visible
28 Oct 9.9 19:09:19 10° SW 19:11:32 16° W 19:13:47 10° NW visible
